Station: Hindmarsh Island  

  Atmospheric Gas Attenuation - ITU Rec 676-11   ----------------- dB/100km -----------------
Date Time Temp RH % AH g/m3 Dew Point Wind Direction Speed kph Gust kph Barometer mB Rainfall Since 9am 24GHz 47GHz 76GHz 122GHz 134GHz 241GHz
04/09 04:40 10.8 83 8.21 8 15 20 1016.5 0.2 18.9 26.3 39.9 104.5 97.2 334.0
04/09 04:30 11.1 80 8.06 7.8 19 24 1017.2 0.2 18.6 25.9 39.1 102.6 94.9 325.8
04/09 04:20 11.1 80 8.06 7.8 19 26 1017.2 0.2 18.6 25.9 39.1 102.6 94.9 325.8
04/09 04:10 11.2 80 8.11 7.9 19 24 1017.2 0.2 18.7 26.0 39.3 103.0 95.4 327.7
04/09 04:00 11.6 79 8.21 8.1 17 22 1017.4 0.2 18.9 26.1 39.5 103.6 96.3 330.8
04/09 03:50 11.2 82 8.31 8.2 17 20 1017.5 0.2 19.1 26.3 40.1 105.2 98.2 337.3
04/09 03:40 11.3 83 8.47 8.5 15 20 1017.6 0.2 19.4 26.6 40.7 106.9 100.2 344.5
04/09 03:30 11.4 83 8.52 8.6 13 19 1017.7 0.2 19.5 26.6 40.9 107.3 100.8 346.5
04/09 03:20 11.4 83 8.52 8.6 13 17 1017.8 0.2 19.5 26.6 40.9 107.3 100.8 346.5
04/09 03:10 11.3 83 8.47 8.5 15 19 1018 0.2 19.4 26.6 40.8 106.9 100.3 344.6
04/09 03:00 11.1 85 8.56 8.7 17 20 1018.1 0.2 19.6 26.8 41.2 108.2 101.8 349.8
04/09 02:50 10.8 87 8.6 8.7 19 22 1018 0.2 19.7 27.0 41.6 109.0 102.7 353.1
04/09 02:40 10.6 87 8.49 8.5 19 20 1018.1 0.2 19.5 26.8 41.2 108.1 101.5 348.7
04/09 02:30 10.7 84 8.25 8.1 11 15 1018.3 0.2 19.0 26.4 40.2 105.3 98.1 336.8
04/09 02:20 11.4 83 8.52 8.6 13 15 1018.5 0.2 19.5 26.7 40.9 107.4 100.9 346.7
04/09 02:10 11.6 82 8.52 8.6 13 13 1018.8 0.2 19.5 26.6 40.8 107.1 100.6 345.9
04/09 02:00 11.6 81 8.42 8.5 13 15 1019 0.2 19.3 26.5 40.4 106.1 99.3 341.2
04/09 01:50 11.6 81 8.42 8.5 15 17 1019.1 0.2 19.3 26.5 40.4 106.1 99.3 341.2
04/09 01:40 11.6 81 8.42 8.5 13 15 1019.2 0.2 19.3 26.5 40.4 106.1 99.3 341.2
04/09 01:30 11.7 80 8.37 8.4 15 17 1019.3 0.2 19.2 26.4 40.2 105.4 98.5 338.5
04/09 01:20 11.7 80 8.37 8.4 13 15 1019.4 0.2 19.2 26.4 40.2 105.4 98.5 338.5
04/09 01:10 11.8 79 8.32 8.3 11 17 1019.6 0.2 19.1 26.3 40.0 104.7 97.7 335.7
04/09 01:00 11.7 80 8.37 8.4 15 19 1019.7 0.2 19.2 26.4 40.2 105.4 98.5 338.6
04/09 00:50 11.8 81 8.53 8.6 13 19 1019.6 0.2 19.5 26.6 40.8 107.1 100.6 345.7
04/09 00:40 11.5 83 8.57 8.7 7 11 1019.7 0.2 19.6 26.8 41.1 107.9 101.5 349.0
04/09 00:30 11.5 82 8.47 8.5 4 7 1019.7 0.2 19.4 26.6 40.7 106.8 100.1 344.2
04/09 00:20 11.5 81 8.37 8.4 6 9 1019.8 0.2 19.2 26.4 40.3 105.7 98.8 339.5
04/09 00:10 11.7 81 8.47 8.6 6 7 1020 0.2 19.4 26.6 40.6 106.6 99.9 343.4
04/09 00:00 11.6 80 8.32 8.3 9 11 1020.1 0.2 19.1 26.3 40.1 105.1 98.0 336.7
03/09 23:50 12 79 8.42 8.5 9 13 1020.2 0.2 19.3 26.4 40.3 105.6 98.9 339.8
03/09 23:40 12.1 79 8.47 8.6 11 15 1020.4 0.2 19.4 26.5 40.5 106.1 99.4 341.8
03/09 23:30 12.1 81 8.69 8.9 11 13 1020.6 0.2 19.9 26.8 41.4 108.5 102.4 352.3
03/09 23:20 12.2 80 8.63 8.9 9 11 1020.8 0.2 19.7 26.7 41.1 107.7 101.5 349.0
03/09 23:10 12.3 80 8.69 9 9 13 1020.8 0.2 19.8 26.8 41.3 108.3 102.2 351.4
03/09 23:00 12.3 80 8.69 9 9 11 1020.9 0.2 19.8 26.8 41.3 108.3 102.2 351.5
03/09 22:50 12.2 81 8.74 9 9 13 1020.9 0.2 20.0 26.9 41.5 109.0 103.0 354.3
03/09 22:40 12.2 81 8.74 9 11 13 1020.9 0.2 20.0 26.9 41.5 109.0 103.0 354.3
03/09 22:30 12.2 80 8.63 8.9 11 13 1020.9 0.2 19.7 26.7 41.1 107.7 101.5 349.0
03/09 22:20 12 79 8.42 8.5 9 11 1021 0.2 19.3 26.4 40.3 105.7 98.9 340.0
03/09 22:10 12.1 77 8.26 8.2 9 11 1021 0.2 18.9 26.1 39.6 103.8 96.6 332.0
03/09 22:00 11.9 77 8.16 8 7 11 1021 0.2 18.7 26.0 39.3 103.0 95.5 328.2
03/09 21:50 12.3 75 8.14 8 7 9 1021.3 0.2 18.7 25.9 39.0 102.3 94.8 325.6
03/09 21:40 12.4 75 8.2 8.1 7 9 1021.4 0.2 18.8 26.0 39.2 102.8 95.5 328.1
03/09 21:30 12.4 74 8.09 7.9 9 9 1021.4 0.2 18.6 25.8 38.8 101.6 94.0 322.9
03/09 21:20 12.4 74 8.09 7.9 7 7 1021.3 0.2 18.6 25.8 38.8 101.6 94.0 322.9
03/09 21:10 12.4 74 8.09 7.9 7 7 1021.3 0.2 18.6 25.8 38.8 101.6 94.0 322.9
03/09 21:00 12.4 74 8.09 7.9 7 9 1021.3 0.2 18.6 25.8 38.8 101.6 94.0 322.9
03/09 20:50 12.5 74 8.14 8 7 9 1021.2 0.2 18.7 25.8 38.9 102.0 94.6 324.8
03/09 20:40 12.3 73 7.93 7.6 7 9 1021.1 0.2 18.2 25.5 38.2 100.0 92.0 315.8
03/09 20:30 12.5 72 7.92 7.6 7 9 1021 0.2 18.2 25.5 38.1 99.7 91.6 314.5
03/09 20:20 12.5 71 7.81 7.4 7 9 1020.9 0.2 18.0 25.3 37.6 98.5 90.2 309.4
03/09 20:10 12.8 69 7.73 7.3 6 7 1020.8 0.2 17.8 25.1 37.1 97.2 88.8 304.6
03/09 20:00 12.7 69 7.68 7.2 7 7 1020.8 0.2 17.7 25.0 37.0 96.8 88.2 302.7
03/09 19:50 12.6 71 7.86 7.5 9 11 1020.7 0.2 18.1 25.3 37.7 98.9 90.7 311.3
03/09 19:40 12.6 72 7.97 7.7 11 13 1020.7 0.2 18.3 25.5 38.2 100.0 92.2 316.4
03/09 19:30 12.4 71 7.76 7.3 13 15 1020.5 0.2 17.9 25.2 37.4 98.0 89.6 307.4
03/09 19:20 12.5 71 7.81 7.4 13 15 1020.5 0.2 18.0 25.3 37.6 98.4 90.1 309.3
03/09 19:10 12.5 70 7.7 7.2 11 15 1020.4 0.2 17.7 25.1 37.1 97.3 88.7 304.3
03/09 19:00 12.8 70 7.84 7.5 11 13 1020.3 0.2 18.0 25.2 37.6 98.4 90.2 309.5
03/09 18:50 12.8 71 7.95 7.7 13 17 1020.2 0.2 18.2 25.4 38.0 99.5 91.6 314.5
03/09 18:40 12.6 69 7.63 7.1 13 17 1020.1 0.2 17.6 24.9 36.8 96.4 87.7 300.6
03/09 18:30 12.8 69 7.73 7.3 13 15 1020.2 0.2 17.8 25.0 37.1 97.2 88.7 304.4
03/09 18:20 12.8 70 7.84 7.5 13 17 1019.9 0.2 18.0 25.2 37.5 98.3 90.1 309.4
03/09 18:10 13 69 7.83 7.5 13 17 1019.8 0.2 18.0 25.1 37.4 98.0 89.8 308.1
03/09 18:00 13.2 67 7.69 7.2 17 20 1019.8 0.2 17.7 24.9 36.8 96.2 87.7 301.0
03/09 17:50 13.5 68 7.95 7.7 17 20 1019.7 0.2 18.2 25.2 37.6 98.6 90.8 311.6
03/09 17:40 13.5 70 8.19 8.1 17 20 1019.5 0.2 18.7 25.6 38.6 101.1 93.9 322.5
03/09 17:30 13.6 68 8 7.8 19 22 1019.5 0.2 18.3 25.2 37.8 99.0 91.3 313.4
03/09 17:20 13.9 67 8.03 7.9 19 24 1019.4 0.2 18.4 25.2 37.8 98.9 91.3 313.6
03/09 17:10 14.3 69 8.48 8.7 20 24 1019.3 0.2 19.3 25.8 39.3 103.1 96.7 332.5
03/09 17:00 14.1 70 8.5 8.7 20 24 1019.2 0.2 19.4 25.9 39.5 103.6 97.2 334.2
03/09 16:50 14 68 8.2 8.2 22 24 1019.1 0.2 18.7 25.4 38.4 100.5 93.4 320.9
03/09 16:40 14.5 67 8.33 8.5 22 26 1019 0.2 19.0 25.5 38.6 101.3 94.5 324.7
03/09 16:30 14.7 67 8.44 8.6 22 28 1019 0.2 19.2 25.6 39.0 102.2 95.6 328.9
03/09 16:20 14.7 65 8.18 8.2 22 28 1018.9 0.2 18.6 25.2 37.9 99.4 92.3 317.1
03/09 16:10 15 65 8.33 8.5 22 28 1018.9 0.2 19.0 25.3 38.4 100.6 93.8 322.6
03/09 16:00 15.3 65 8.49 8.8 22 26 1018.8 0.2 19.3 25.5 38.9 101.9 95.5 328.6
03/09 15:50 15.2 64 8.31 8.4 24 30 1018.8 0.2 18.9 25.2 38.2 100.1 93.3 320.9
03/09 15:40 15.7 65 8.7 9.1 20 26 1018.8 0.2 19.7 25.7 39.5 103.6 97.8 336.5
03/09 15:30 15.6 62 8.25 8.4 24 28 1018.7 0.2 18.8 25.0 37.8 99.0 92.1 316.6
03/09 15:20 15.2 60 7.79 7.5 24 30 1018.6 0.2 17.8 24.4 36.2 94.7 86.7 297.6
03/09 15:10 15.5 64 8.46 8.7 20 28 1018.6 0.2 19.2 25.4 38.6 101.3 94.9 326.4
03/09 15:00 15.3 63 8.23 8.3 22 26 1018.5 0.2 18.7 25.1 37.8 99.2 92.2 316.8
03/09 14:50 15.5 63 8.33 8.5 24 30 1018.5 0.2 18.9 25.2 38.1 99.9 93.2 320.5
03/09 14:40 15.2 61 7.92 7.7 26 30 1018.3 0.2 18.1 24.6 36.7 96.1 88.3 303.3
03/09 14:30 16.3 59 8.19 8.3 26 32 1018.3 0.2 18.6 24.7 37.2 97.5 90.5 311.0
03/09 14:20 15.9 60 8.13 8.2 28 32 1018.1 0.2 18.5 24.7 37.2 97.3 90.2 309.9
03/09 14:10 16.2 59 8.14 8.2 28 33 1018.1 0.2 18.5 24.7 37.1 97.1 90.0 309.2
03/09 14:00 15.7 62 8.3 8.4 28 35 1018.1 0.2 18.9 25.1 37.9 99.3 92.6 318.3
03/09 13:50 16 63 8.58 9 28 35 1018 0.2 19.4 25.4 38.8 101.9 95.8 329.6
03/09 13:40 16.2 62 8.55 8.9 30 35 1017.9 0.2 19.4 25.3 38.6 101.3 95.1 327.4
03/09 13:30 15.8 65 8.75 9.2 30 35 1017.9 0.2 19.8 25.7 39.6 103.9 98.2 338.1
03/09 13:20 16.2 66 9.1 9.8 28 35 1017.8 0.2 20.5 26.2 40.8 107.0 102.2 352.2
03/09 13:10 16.3 65 9.02 9.7 30 39 1017.8 0.2 20.4 26.0 40.4 106.1 101.1 348.1
03/09 13:00 16 65 8.86 9.4 32 41 1017.9 0 20.0 25.8 39.9 104.8 99.4 342.2
03/09 12:50 15.4 66 8.67 9.1 32 41 1017.9 0 19.7 25.7 39.5 103.6 97.7 336.1
03/09 12:40 15.9 64 8.67 9.1 32 39 1018 0 19.6 25.6 39.2 102.9 97.1 334.0
03/09 12:30 15.6 67 8.91 9.5 28 37 1018 0 20.2 26.0 40.3 105.9 100.6 346.2
03/09 12:20 14.9 69 8.79 9.3 30 35 1018 0 19.9 26.1 40.2 105.5 99.9 343.8
03/09 12:10 15.1 72 9.29 10.1 26 32 1018.2 0 21.0 26.8 42.1 110.6 106.3 366.1

Last Refresh: 04-Sep-2026 04:52:03

Bureau of Meteorology